Flag for Canada Weather past 2 weeks in Morden, Manitoba, Canada

Now
62 °F

Cool.


Feels Like: 62 °F
Forecast: 56 / 83 °F
Wind: 7 mph from Southwest

Location: Morden CDA CS

Current Time: Aug 28, 2014 at 3:15:26 AM

Latest Report: Aug 28, 2014 at 2:00 AM


Visibility: N/A

Pressure: 29.94 "Hg

Humidity: 86%

Dew point: 58 °F

Location of MordenLocation

Historic Weather in Morden — Graph

°F

Morden temperature yesterday

Maximum temperature yesterday: 75 °F (at 3:00 PM)
Minimum temperature yesterday: 47 °F (at 1:00 AM)
Average temperature yesterday: 62 °F

Past Weeks' High & Low Weather Summary

 TemperatureHumidityPressure
High85 °F (Aug 15, 3:00 PM)98% (Aug 23, 9:00 AM)30.18 "Hg (Aug 23, 9:00 AM)
Low47 °F (Aug 27, 1:00 AM)38% (Aug 27, 2:00 PM)29.53 "Hg (Aug 24, 5:00 PM)
Average66 °F79%29.87 "Hg
* Reported Aug 13 2:00 AM — Aug 28 2:00 AM, Morden, Weather by CustomWeather, © 2014

Note: Actual official high and low records may vary slightly from our data, if they occured in-between our weather recording intervals... More about our weather records

Advertising

Morden weather history for previous 24 hours

 ConditionsComfort  
Time TempWeatherWind HumidityBarometerVisibility
2:00 AM
Aug 28
62 °FCool.7 mph86%29.94 "HgN/A
1:00 AM58 °FCool.5 mph90%29.96 "HgN/A
12:00 AM59 °FCool.6 mph88%29.98 "HgN/A
11:00 PM
Aug 27
58 °FCool.5 mph86%29.99 "HgN/A
10:00 PM60 °FCool.3 mph82%30.01 "HgN/A
9:00 PM63 °FMild.3 mph74%30.01 "HgN/A
8:00 PM68 °FMild.5 mph63%30.01 "HgN/A
7:00 PM72 °FMild.8 mph50%30.02 "HgN/A
6:00 PM74 °FMild.10 mph44%30.03 "HgN/A
5:00 PM74 °FMild.12 mph39%30.04 "HgN/A
4:00 PM74 °FMild.9 mph41%30.05 "HgN/A
3:00 PM75 °FMild.10 mph40%30.07 "HgN/A
2:00 PM74 °FMild.9 mph38%30.09 "HgN/A
1:00 PM72 °FMild.7 mph45%30.11 "HgN/A
12:00 PM71 °FMild.6 mph48%30.11 "HgN/A
11:00 AM69 °FMild.9 mph58%30.12 "HgN/A
10:00 AM66 °FMild.6 mph66%30.12 "HgN/A
9:00 AM60 °FCool.7 mph76%30.12 "HgN/A
8:00 AM56 °FCool.6 mph82%30.11 "HgN/A
7:00 AM52 °FCool.7 mph79%30.12 "HgN/A
6:00 AM52 °FCool.6 mph80%30.12 "HgN/A
5:00 AM50 °FCool.3 mph81%30.12 "HgN/A
4:00 AM50 °FCool.5 mph83%30.12 "HgN/A
3:00 AM49 °FCool.6 mph85%30.13 "HgN/A
Weather by CustomWeather, © 2014

See weather overviewHow to use our weather pages